FDX13 KASE-KLAX

Flight info

Callsign FDX13
Flight time N/A
Altitude 32000
Route GLENO V591 JNC V8 GFS V538 TNP
Aircraft B737/M-VGDW/C

Departure

Time 2026-05-05 11:39
Airport Aspen-Pitkin County Airport (Sardy Field) (KASE)

Arrival

Time N/A
Airport Los Angeles International Airport (KLAX)
Time Latitude Longitude Altitude Speed Heading
2026-05-05 10:36 39.22147 -106.86654 7760 ft 0 kts 71°
2026-05-05 11:35 39.22148 -106.86655 7769 ft 0 kts 60°
2026-05-05 11:35 39.22148 -106.86656 7769 ft 0 kts 53°
2026-05-05 11:35 39.22148 -106.86657 7769 ft 0 kts 40°
2026-05-05 11:36 39.22148 -106.86658 7769 ft 0 kts 32°
2026-05-05 11:37 39.22148 -106.86659 7769 ft 0 kts 20°
2026-05-05 11:37 39.21145 -106.86326 7844 ft 383 kts 350°
2026-05-05 11:37 39.21147 -106.86324 7843 ft 0 kts 336°
2026-05-05 11:38 39.21304 -106.86398 7832 ft 60 kts 339°
2026-05-05 11:38 39.21921 -106.86701 7788 ft 127 kts 340°
2026-05-05 11:38 39.22920 -106.87172 7714 ft 175 kts 337°
2026-05-05 11:38 39.24075 -106.87792 8243 ft 175 kts 337°
2026-05-05 11:39 39.25193 -106.88366 9060 ft 175 kts 338°
2026-05-05 11:39 39.26269 -106.89037 9746 ft 166 kts 323°
2026-05-05 11:39 39.27109 -106.89999 10269 ft 158 kts 313°
2026-05-05 11:39 39.27885 -106.91096 10465 ft 175 kts 309°
2026-05-05 11:40 39.28672 -106.92287 10960 ft 173 kts 308°
2026-05-05 11:40 39.29517 -106.93476 11302 ft 187 kts 311°
2026-05-05 11:40 39.30463 -106.94703 11568 ft 207 kts 313°
2026-05-05 11:40 39.31511 -106.96213 11625 ft 243 kts 303°
2026-05-05 11:41 39.32409 -106.98183 11724 ft 272 kts 293°
2026-05-05 11:41 39.33191 -107.00543 11762 ft 300 kts 291°
2026-05-05 11:41 39.34068 -107.03113 11941 ft 322 kts 294°
2026-05-05 11:41 39.35085 -107.05751 12484 ft 332 kts 295°
2026-05-05 11:42 39.36137 -107.08448 13187 ft 336 kts 294°
2026-05-05 11:42 39.37147 -107.11147 13850 ft 339 kts 294°
2026-05-05 11:42 39.38139 -107.13919 14547 ft 341 kts 290°
2026-05-05 11:42 39.38870 -107.16843 15208 ft 343 kts 282°
2026-05-05 11:43 39.39260 -107.19895 15858 ft 345 kts 274°
2026-05-05 11:43 39.39298 -107.23014 16499 ft 348 kts 266°
2026-05-05 11:43 39.38981 -107.26123 17126 ft 351 kts 258°
2026-05-05 11:43 39.38314 -107.29162 17769 ft 354 kts 250°
2026-05-05 11:44 39.37305 -107.32085 18342 ft 357 kts 242°
2026-05-05 11:44 39.36086 -107.34896 18874 ft 360 kts 241°
2026-05-05 11:44 39.34896 -107.37765 19431 ft 362 kts 244°
2026-05-05 11:44 39.33898 -107.40723 19970 ft 365 kts 250°
2026-05-05 11:45 39.33188 -107.43881 20510 ft 367 kts 257°
2026-05-05 11:45 39.32678 -107.47125 21056 ft 370 kts 259°
2026-05-05 11:45 39.32183 -107.50392 21588 ft 372 kts 257°
2026-05-05 11:45 39.31535 -107.53649 22131 ft 375 kts 254°
2026-05-05 11:46 39.30824 -107.56905 22663 ft 378 kts 255°
2026-05-05 11:46 39.30164 -107.60196 23192 ft 380 kts 256°
2026-05-05 11:46 39.29536 -107.63526 23609 ft 383 kts 256°
2026-05-05 11:46 39.28883 -107.66868 24100 ft 385 kts 255°
2026-05-05 11:47 39.28202 -107.70222 24567 ft 386 kts 255°
2026-05-05 11:47 39.27525 -107.73583 25041 ft 387 kts 255°
2026-05-05 11:47 39.26868 -107.76908 25479 ft 388 kts 255°
2026-05-05 11:47 39.26198 -107.80289 25926 ft 389 kts 255°
2026-05-05 11:48 39.24843 -107.87046 27032 ft 386 kts 254°
2026-05-05 11:48 39.24172 -107.90396 27685 ft 381 kts 254°
2026-05-05 11:48 39.23511 -107.93690 28327 ft 377 kts 254°
2026-05-05 11:49 39.22863 -107.96913 28948 ft 373 kts 254°
2026-05-05 11:49 39.22214 -108.00134 29552 ft 369 kts 253°
2026-05-05 11:49 39.21571 -108.03322 30107 ft 365 kts 253°
2026-05-05 11:49 39.20932 -108.06486 30621 ft 361 kts 253°
2026-05-05 11:50 39.20302 -108.09599 31184 ft 356 kts 253°
2026-05-05 11:50 39.19683 -108.12657 31672 ft 350 kts 253°
2026-05-05 11:50 39.19058 -108.15726 31777 ft 358 kts 253°
2026-05-05 11:50 39.18423 -108.18842 31784 ft 360 kts 253°
2026-05-05 11:51 39.17159 -108.25058 31804 ft 361 kts 253°
2026-05-05 11:51 39.15876 -108.31332 31824 ft 362 kts 253°
2026-05-05 11:52 39.14589 -108.37612 31851 ft 361 kts 253°
2026-05-05 11:52 39.13301 -108.43884 31873 ft 364 kts 252°
2026-05-05 11:53 39.11998 -108.50201 31871 ft 364 kts 252°
2026-05-05 11:53 39.10692 -108.56513 31870 ft 364 kts 252°
2026-05-05 11:54 39.09394 -108.62771 31871 ft 364 kts 252°
2026-05-05 11:54 39.08086 -108.69059 31838 ft 363 kts 252°
2026-05-05 11:55 39.06773 -108.75353 31735 ft 364 kts 252°
2026-05-05 11:55 39.05247 -108.81576 31733 ft 366 kts 246°
2026-05-05 11:56 39.03227 -108.87565 31736 ft 365 kts 246°
2026-05-05 11:56 39.01280 -108.93590 31737 ft 365 kts 246°
2026-05-05 11:57 38.99311 -108.99569 31738 ft 365 kts 246°
2026-05-05 11:57 38.97342 -109.05571 31743 ft 364 kts 246°
2026-05-05 11:58 38.95365 -109.11574 31741 ft 364 kts 246°
2026-05-05 11:58 38.93706 -109.16599 31736 ft 368 kts 245°
2026-05-05 11:59 38.91711 -109.22638 31737 ft 366 kts 245°
2026-05-05 11:59 38.89717 -109.28655 31734 ft 366 kts 245°
2026-05-05 12:00 38.87733 -109.34633 31732 ft 366 kts 245°
2026-05-05 12:00 38.85737 -109.40632 31732 ft 366 kts 245°
2026-05-05 12:01 38.83732 -109.46648 31746 ft 366 kts 245°
2026-05-05 12:01 38.81714 -109.52688 31736 ft 368 kts 245°
2026-05-05 12:02 38.79711 -109.58670 31716 ft 368 kts 245°
2026-05-05 12:02 38.77706 -109.64646 31733 ft 363 kts 245°
2026-05-05 12:03 38.75705 -109.70596 31846 ft 363 kts 245°
2026-05-05 12:03 38.73703 -109.76539 31851 ft 363 kts 245°
2026-05-05 12:04 38.71695 -109.82487 31857 ft 366 kts 245°
2026-05-05 12:04 38.69672 -109.88467 31849 ft 366 kts 245°
2026-05-05 12:05 38.67659 -109.94405 31824 ft 366 kts 245°
2026-05-05 12:05 38.65631 -110.00376 31743 ft 365 kts 245°
2026-05-05 12:06 38.63599 -110.06346 31746 ft 366 kts 245°
2026-05-05 12:06 38.61565 -110.12311 31744 ft 366 kts 245°
2026-05-05 12:07 38.59519 -110.18298 31745 ft 368 kts 245°
2026-05-05 12:07 38.57484 -110.24241 31750 ft 367 kts 244°
2026-05-05 12:08 38.55428 -110.30229 31753 ft 367 kts 244°
2026-05-05 12:08 38.53374 -110.36204 31759 ft 367 kts 244°
2026-05-05 12:09 38.51313 -110.42185 31756 ft 367 kts 244°
2026-05-05 12:09 38.49265 -110.48115 31770 ft 367 kts 244°
2026-05-05 12:10 38.47186 -110.54123 31766 ft 369 kts 244°
2026-05-05 12:10 38.45109 -110.60113 31766 ft 369 kts 244°
2026-05-05 12:11 38.44069 -110.63109 31903 ft 369 kts 244°
2026-05-05 12:11 38.43029 -110.66100 31904 ft 369 kts 244°
2026-05-05 12:11 38.40840 -110.71958 31905 ft 368 kts 239°
2026-05-05 12:12 38.38282 -110.77616 31903 ft 368 kts 239°
2026-05-05 12:12 38.35771 -110.83315 31889 ft 370 kts 239°
2026-05-05 12:13 38.33248 -110.88981 31864 ft 365 kts 239°
2026-05-05 12:13 38.30746 -110.94599 31843 ft 364 kts 239°
2026-05-05 12:14 38.28245 -111.00207 31825 ft 364 kts 239°
2026-05-05 12:14 38.25739 -111.05812 31810 ft 364 kts 239°
2026-05-05 12:15 38.23230 -111.11417 31796 ft 364 kts 239°
2026-05-05 12:15 38.20731 -111.16991 31807 ft 367 kts 238°
2026-05-05 12:16 38.19466 -111.19807 31809 ft 365 kts 238°
2026-05-05 12:17 38.13251 -111.33609 31813 ft 365 kts 238°
2026-05-05 12:17 38.10718 -111.39219 31818 ft 366 kts 238°
2026-05-05 12:18 38.08176 -111.44838 31828 ft 366 kts 238°
2026-05-05 12:18 38.05648 -111.50414 31825 ft 366 kts 238°
2026-05-05 12:19 38.03101 -111.56025 31841 ft 366 kts 238°
2026-05-05 12:19 38.00556 -111.61620 31841 ft 366 kts 238°
2026-05-05 12:20 37.98006 -111.67220 31836 ft 365 kts 238°
2026-05-05 12:20 37.95472 -111.72773 31825 ft 361 kts 238°
2026-05-05 12:21 37.92965 -111.78256 31831 ft 362 kts 238°
2026-05-05 12:21 37.90423 -111.83805 31873 ft 364 kts 238°
2026-05-05 12:22 37.87873 -111.89365 31907 ft 365 kts 238°
2026-05-05 12:22 37.85343 -111.94872 31938 ft 364 kts 238°
2026-05-05 12:23 37.82793 -112.00410 31966 ft 364 kts 238°
2026-05-05 12:23 37.80242 -112.05944 31996 ft 364 kts 238°
2026-05-05 12:24 37.79396 -112.07777 32007 ft 364 kts 238°
2026-05-05 12:24 37.75061 -112.17151 32011 ft 367 kts 238°
2026-05-05 12:25 37.72481 -112.22718 32012 ft 367 kts 238°
2026-05-05 12:25 37.69902 -112.28275 32002 ft 366 kts 238°
2026-05-05 12:26 37.69049 -112.30109 31992 ft 366 kts 237°